Watsonville, CA

8:11 PM PDT on October 20, 2019 (GMT -0700)
Watsonville Municipal

Weather History for KWVI - August, 2019

Change the Weather History Date:

Saturday, August 10, 2019

  Actual Average Record
Temperature  
Mean Temperature 68 °F 64 °F  
Max Temperature 79 °F 74 °F 89 °F (2002)
Min Temperature 57 °F 53 °F 50 °F (2008)
Degree Days  
Heating Degree Days 0    
Month to date heating degree days 6  
Since 1 June heating degree days 144  
Since 1 July heating degree days 53  
Cooling Degree Days 3    
Month to date cooling degree days 10  
Year to date cooling degree days 64  
Since 1 June cooling degree days 64  
Growing Degree Days 19 (Base 50)    
Moisture  
Dew Point 59 °F    
Average Humidity 72    
Maximum Humidity 90    
Minimum Humidity 54    
Precipitation  
Precipitation 0.00 in - 0.03 in (2015)
Month to date precipitation T  
Year to date precipitation 22.76  
Sea Level Pressure  
Sea Level Pressure 29.98 in    
Wind  
Wind Speed 5 mph (SSW)    
Max Wind Speed 15 mph    
Max Gust Speed 21 mph    
Visibility 10 miles    
Events      
T = Trace of Precipitation, MM = Missing Value Source: NWS Daily Summary

Daily Weather History Graph

Daily Weather History Graph

Search for Another Location

Airport or City:

Astronomy

Aug. 10, 2019 Rise Set
Actual Time 6:19 AM PDT 8:04 PM PDT
Civil Twilight 5:51 AM PDT 8:32 PM PDT
Nautical Twilight 5:17 AM PDT 9:06 PM PDT
Astronomical Twilight 4:41 AM PDT 9:42 PM PDT
Moon 4:49 PM PDT (8/10) 2:02 AM PDT (8/10)
Length of Visible Light 14h 40m
Length of Day
13h 44m
Waxing Gibbous, 80% of the Moon is Illuminated
Aug 10
Waxing Gibbous
Aug 15
Full
Aug 23
Last Quarter
Aug 30
New
Sep 5
First Quarter

Hourly Weather History & Observations

Time (PDT) Temp. Dew Point Humidity Pressure Visibility Wind Dir Wind Speed Gust Speed Precip Events Conditions
12:53 AM 63.0 °F 59.0 °F 87% 29.96 in 10.0 mi Calm Calm - N/A   Overcast
1:53 AM 64.0 °F 60.1 °F 87% 29.95 in 10.0 mi ENE 3.5 mph - N/A   Overcast
2:53 AM 64.0 °F 60.1 °F 87% 29.95 in 10.0 mi NE 3.5 mph - N/A   Overcast
3:53 AM 64.0 °F 59.0 °F 84% 29.95 in 10.0 mi Calm Calm - N/A   Overcast
4:53 AM 63.0 °F 59.0 °F 87% 29.96 in 10.0 mi Calm Calm - N/A   Overcast
5:53 AM 63.0 °F 57.9 °F 84% 29.96 in 10.0 mi Calm Calm - N/A   Overcast
6:53 AM 62.1 °F 57.9 °F 86% 29.97 in 10.0 mi Calm Calm - N/A   Overcast
7:53 AM 63.0 °F 59.0 °F 87% 29.99 in 10.0 mi Calm Calm - N/A   Overcast
8:53 AM 66.0 °F 59.0 °F 78% 29.99 in 10.0 mi ENE 3.5 mph - N/A   Mostly Cloudy
9:09 AM 66.9 °F 60.1 °F 79% 29.99 in 10.0 mi Calm Calm - N/A   Partly Cloudy
9:53 AM 71.1 °F 60.1 °F 68% 29.98 in 10.0 mi Calm Calm - N/A   Clear
10:53 AM 75.0 °F 60.1 °F 60% 29.98 in 10.0 mi Calm Calm - N/A   Clear
11:53 AM 77.0 °F 60.1 °F 56% 29.99 in 10.0 mi WSW 10.4 mph - N/A   Clear
12:53 PM 73.0 °F 60.1 °F 64% 29.99 in 10.0 mi West 12.7 mph - N/A   Clear
1:53 PM 73.9 °F 60.1 °F 62% 29.99 in 10.0 mi WSW 10.4 mph - N/A   Clear
2:53 PM 73.0 °F 60.1 °F 64% 29.98 in 10.0 mi WSW 9.2 mph - N/A   Clear
3:53 PM 75.0 °F 60.1 °F 60% 29.98 in 10.0 mi West 9.2 mph - N/A   Clear
4:53 PM 75.9 °F 59.0 °F 56% 29.97 in 10.0 mi West 11.5 mph 17.3 mph N/A   Clear
5:53 PM 75.0 °F 57.9 °F 55% 29.97 in 10.0 mi West 5.8 mph - N/A   Clear
6:53 PM 72.0 °F 57.9 °F 61% 29.97 in 10.0 mi SSW 6.9 mph - N/A   Clear
7:53 PM 64.9 °F 57.0 °F 75% 29.99 in 10.0 mi SSE 6.9 mph - N/A   Clear
8:53 PM 62.1 °F 57.0 °F 84% 30.01 in 10.0 mi SE 6.9 mph - N/A   Clear
9:53 PM 61.0 °F 55.9 °F 83% 30.02 in 10.0 mi SE 4.6 mph - N/A   Clear
10:53 PM 61.0 °F 55.9 °F 83% 30.03 in 10.0 mi Calm Calm - N/A   Clear
11:53 PM 59.0 °F 55.9 °F 90% 30.04 in 10.0 mi SSE 4.6 mph - N/A   Clear